DW7918 Weather Reports


Display with metric or nautical units.
time (UTC)temp
F
wind
direction
speed
MPH
gust
MPH
rain 1hr
in
rain 24hr
in
rain mn
in
humidity
%
barometer
mb
20260905052803 71 173 1.0 4.0 0.13 0.54 0.13 72 1013.4
20260905052624 71 174 1.0 6.0 0.13 0.54 0.13 72 1013.4
20260905052403 71 173 1.0 6.0 0.13 0.54 0.13 71 1013.3
20260905052203 71 172 1.0 6.0 0.13 0.54 0.13 71 1013.4
20260905052003 72 171 1.0 6.0 0.13 0.54 0.13 70 1013.8
20260905051803 72 171 0.0 6.0 0.12 0.53 0.12 70 1014.1
20260905051603 72 0 0.0 0.0 0.12 0.53 0.12 70 1014.2
20260905051403 72 198 0.0 3.0 0.12 0.53 0.12 70 1014.8
20260905051203 72 193 0.0 4.0 0.12 0.53 0.12 70 1015.4
20260905051003 72 193 0.0 4.0 0.12 0.53 0.12 70 1015.4
20260905050603 72 189 1.0 6.0 0.12 0.53 0.12 69 1015.4
20260905050403 72 123 2.0 17.0 0.12 0.53 0.12 69 1015.4
20260905050203 72 103 4.0 17.0 0.12 0.53 0.12 69 1015.2
20260905050003 72 102 5.0 17.0 0.11 0.52 0.11 69 1014.9
20260905045803 72 104 5.0 17.0 0.10 0.51 0.10 68 1015.0
20260905045603 72 103 5.0 17.0 0.08 0.49 0.08 70 1015.8
20260905045403 73 115 4.0 14.0 0.06 0.47 0.06 71 1015.3
20260905045203 73 152 3.0 14.0 0.05 0.46 0.05 71 1014.3
20260905045003 73 185 3.0 7.0 0.04 0.45 0.04 71 1014.0
20260905044803 73 186 2.0 7.0 0.04 0.45 0.04 70 1013.9
20260905044603 73 189 2.0 7.0 0.02 0.43 0.03 71 1014.1
20260905044424 73 192 2.0 7.0 0.02 0.43 0.02 71 1014.2
20260905044203 73 184 2.0 5.0 0.02 0.43 0.02 71 1014.0
20260905044003 73 117 3.0 10.0 0.02 0.43 0.02 71 1014.0
20260905043803 73 101 4.0 10.0 0.02 0.43 0.02 72 1014.0
20260905043610 73 104 4.0 10.0 0.02 0.43 0.02 72 1014.3
20260905043403 73 110 4.0 10.0 0.02 0.43 0.02 71 1014.6
20260905043203 73 117 4.0 10.0 0.01 0.42 0.02 71 1014.6
20260905043003 73 137 2.0 9.0 0.01 0.42 0.01 71 1014.5
20260905042803 73 170 2.0 4.0 0.00 0.41 0.00 71 1014.2
20260905042603 73 186 1.0 4.0 0.00 0.41 0.00 71 1014.0
20260905042403 73 187 1.0 4.0 0.00 0.41 0.00 70 1013.9
20260905042203 73 186 0.0 4.0 0.00 0.41 0.00 70 1014.0
20260905042003 73 0 0.0 0.0 0.00 0.41 0.00 70 1014.0
20260905041803 74 0 0.0 0.0 0.00 0.41 0.00 70 1014.1
20260905041604 74 0 0.0 0.0 0.00 0.41 0.00 70 1014.1
20260905041403 74 0 0.0 0.0 0.00 0.41 0.00 70 1014.0
20260905041203 74 0 0.0 0.0 0.00 0.41 0.00 70 1014.0
20260905041003 74 0 0.0 0.0 0.00 0.41 0.00 70 1014.0
20260905040824 74 200 0.0 3.0 0.00 0.41 0.00 70 1014.0
20260905040603 74 116 1.0 6.0 0.00 0.41 0.00 71 1014.1
20260905040403 73 104 1.0 6.0 0.00 0.41 0.00 71 1014.1
20260905040203 73 100 1.0 6.0 0.00 0.41 0.00 71 1014.1
20260905040024 73 100 1.0 6.0 0.00 0.41 0.00 70 1014.3
20260905035803 73 96 1.0 6.0 0.00 0.41 0.41 70 1014.6
20260905035603 74 95 1.0 6.0 0.00 0.41 0.41 70 1014.3
20260905035403 74 92 0.0 6.0 0.00 0.41 0.41 70 1014.2
20260905035224 74 0 0.0 0.0 0.00 0.41 0.41 70 1014.1
20260905035024 74 0 0.0 0.0 0.00 0.41 0.41 70 1014.1
20260905034824 74 77 0.0 1.0 0.00 0.41 0.41 71 1014.2
20260905034603 74 77 0.0 1.0 0.00 0.41 0.41 71 1014.3
20260905034403 73 77 0.0 1.0 0.00 0.41 0.41 71 1014.3
20260905034203 73 77 0.0 1.0 0.00 0.41 0.41 70 1014.4
20260905034003 74 77 0.0 1.0 0.00 0.41 0.41 70 1014.5
20260905033824 74 0 0.0 0.0 0.00 0.41 0.41 70 1014.5
20260905033603 74 0 0.0 0.0 0.00 0.41 0.41 71 1014.4
20260905033403 74 0 0.0 0.0 0.00 0.41 0.41 70 1014.3
20260905033203 74 0 0.0 0.0 0.00 0.41 0.41 70 1014.5
20260905033003 74 0 0.0 0.0 0.00 0.41 0.41 70 1014.5
20260905032803 74 0 0.0 0.0 0.00 0.41 0.41 70 1014.5
20260905032603 74 0 0.0 0.0 0.00 0.41 0.41 70 1014.6
20260905032403 74 0 0.0 0.0 0.00 0.41 0.41 70 1014.6
20260905032224 74 0 0.0 0.0 0.00 0.41 0.41 70 1014.6
20260905032024 74 0 0.0 0.0 0.00 0.41 0.41 71 1014.6
20260905031803 74 0 0.0 0.0 0.00 0.41 0.41 70 1014.6
20260905031603 74 0 0.0 0.0 0.00 0.41 0.41 70 1014.7
20260905031424 74 0 0.0 0.0 0.00 0.41 0.41 70 1014.7
20260905031203 74 0 0.0 0.0 0.00 0.41 0.41 70 1014.8
20260905031024 74 0 0.0 0.0 0.00 0.41 0.41 70 1014.8
20260905030803 74 0 0.0 0.0 0.00 0.41 0.41 70 1014.9
20260905030624 74 0 0.0 0.0 0.00 0.41 0.41 70 1014.8
20260905030403 74 0 0.0 0.0 0.00 0.41 0.41 70 1014.9
20260905030203 74 0 0.0 0.0 0.00 0.41 0.41 70 1014.9
20260905030003 74 0 0.0 0.0 0.00 0.41 0.41 70 1014.9
20260905025803 74 0 0.0 0.0 0.00 0.41 0.41 70 1014.9
20260905025603 74 0 0.0 0.0 0.00 0.41 0.41 70 1014.9
20260905025403 74 0 0.0 0.0 0.00 0.41 0.41 70 1015.0
20260905025203 74 0 0.0 0.0 0.00 0.41 0.41 70 1014.9
20260905025004 74 0 0.0 0.0 0.00 0.41 0.41 70 1014.9
20260905024803 74 0 0.0 0.0 0.00 0.41 0.41 70 1014.9
20260905024603 74 0 0.0 0.0 0.00 0.41 0.41 70 1015.0
20260905024403 74 0 0.0 0.0 0.00 0.41 0.41 70 1015.0
20260905024203 74 0 0.0 0.0 0.00 0.41 0.41 70 1015.0
20260905024003 74 0 0.0 0.0 0.00 0.41 0.41 70 1014.9
20260905023803 74 0 0.0 0.0 0.00 0.41 0.41 69 1014.9
20260905023603 74 0 0.0 0.0 0.00 0.41 0.41 69 1014.9
20260905023403 74 0 0.0 0.0 0.00 0.41 0.41 69 1014.9
20260905023203 74 0 0.0 0.0 0.00 0.41 0.41 69 1015.0
20260905023003 74 0 0.0 0.0 0.00 0.41 0.41 69 1014.9
20260905022803 74 0 0.0 0.0 0.00 0.41 0.41 69 1014.9
20260905022624 74 0 0.0 0.0 0.00 0.41 0.41 69 1014.9
20260905022403 74 0 0.0 0.0 0.00 0.41 0.41 69 1014.9
20260905022203 74 188 0.0 4.0 0.00 0.41 0.41 69 1015.0
20260905022003 74 188 0.0 4.0 0.00 0.41 0.41 69 1015.0
20260905021803 74 188 0.0 4.0 0.00 0.41 0.41 69 1014.8
20260905021603 74 188 0.0 4.0 0.00 0.41 0.41 69 1014.7
20260905021404 74 188 0.0 4.0 0.00 0.41 0.41 69 1014.8
20260905021203 74 0 0.0 0.0 0.00 0.41 0.41 69 1014.8
20260905021003 74 0 0.0 0.0 0.00 0.41 0.41 69 1014.8
20260905020803 74 0 0.0 0.0 0.00 0.41 0.41 69 1014.8
20260905020624 74 0 0.0 0.0 0.00 0.41 0.41 69 1014.8
20260905020403 74 0 0.0 0.0 0.00 0.41 0.41 69 1014.7
20260905020203 74 0 0.0 0.0 0.00 0.41 0.41 69 1014.6
20260905020003 74 0 0.0 0.0 0.00 0.41 0.41 69 1014.6
20260905015803 74 0 0.0 0.0 0.00 0.41 0.41 69 1014.7
20260905015603 74 0 0.0 0.0 0.00 0.41 0.41 68 1014.8
20260905015403 75 0 0.0 0.0 0.00 0.41 0.41 68 1014.9
20260905015203 75 0 0.0 0.0 0.00 0.41 0.41 68 1014.9
20260905015003 75 0 0.0 0.0 0.00 0.41 0.41 69 1014.8
20260905014803 75 0 0.0 0.0 0.00 0.41 0.41 69 1014.9
20260905014603 75 0 0.0 0.0 0.00 0.41 0.41 68 1014.8
20260905014403 75 0 0.0 0.0 0.00 0.41 0.41 68 1014.8
20260905014203 75 0 0.0 0.0 0.00 0.41 0.41 68 1014.7
20260905014003 75 0 0.0 0.0 0.00 0.41 0.41 69 1014.7
20260905013803 75 183 0.0 1.0 0.00 0.41 0.41 68 1014.8
20260905013624 75 183 0.0 1.0 0.00 0.41 0.41 68 1014.8
20260905013403 75 183 0.0 1.0 0.00 0.41 0.41 68 1014.8
20260905013224 75 183 0.0 1.0 0.00 0.41 0.41 68 1014.7
20260905013003 75 183 0.0 1.0 0.00 0.41 0.41 68 1014.6
20260905012803 75 0 0.0 0.0 0.00 0.41 0.41 68 1014.7
20260905012603 75 0 0.0 0.0 0.00 0.41 0.41 68 1014.7
20260905012403 75 0 0.0 0.0 0.00 0.41 0.41 68 1014.7
20260905012203 75 0 0.0 0.0 0.00 0.41 0.41 68 1014.7
20260905012003 75 0 0.0 0.0 0.00 0.41 0.41 68 1014.6
20260905011803 75 0 0.0 0.0 0.00 0.41 0.41 68 1014.6
20260905011624 75 0 0.0 0.0 0.00 0.41 0.41 68 1014.7
20260905011403 75 0 0.0 0.0 0.00 0.41 0.41 68 1014.6
20260905011203 75 0 0.0 0.0 0.00 0.41 0.41 68 1014.5
20260905011003 75 0 0.0 0.0 0.00 0.41 0.41 68 1014.6
20260905010803 75 0 0.0 0.0 0.00 0.41 0.41 68 1014.6
20260905010603 75 0 0.0 0.0 0.00 0.41 0.41 68 1014.6
20260905010403 75 0 0.0 0.0 0.00 0.41 0.41 67 1014.5
20260905010203 76 0 0.0 0.0 0.00 0.41 0.41 68 1014.5
20260905010003 76 0 0.0 0.0 0.00 0.41 0.41 68 1014.5
20260905005803 75 0 0.0 0.0 0.00 0.41 0.41 68 1014.5
20260905005603 75 0 0.0 0.0 0.00 0.41 0.41 68 1014.5
20260905005403 76 0 0.0 0.0 0.00 0.41 0.41 68 1014.5
20260905005203 76 0 0.0 0.0 0.00 0.41 0.41 68 1014.5
20260905005003 76 0 0.0 0.0 0.00 0.41 0.41 68 1014.5
20260905004824 76 0 0.0 0.0 0.00 0.41 0.41 68 1014.4
20260905004624 76 0 0.0 0.0 0.00 0.41 0.41 68 1014.4
20260905004403 76 0 0.0 0.0 0.00 0.41 0.41 68 1014.4
20260905004203 76 0 0.0 0.0 0.00 0.41 0.41 68 1014.4
20260905004003 76 0 0.0 0.0 0.00 0.41 0.41 68 1014.3
20260905003803 76 0 0.0 0.0 0.00 0.41 0.41 68 1014.3
20260905003603 76 0 0.0 0.0 0.00 0.41 0.41 68 1014.3
20260905003403 76 0 0.0 0.0 0.00 0.41 0.41 68 1014.3
20260905003203 76 180 0.0 1.0 0.00 0.41 0.41 68 1014.3
20260905003003 76 183 0.0 4.0 0.00 0.41 0.41 67 1014.3
20260905002824 76 183 0.0 4.0 0.00 0.41 0.41 67 1014.3
20260905002624 77 183 0.0 4.0 0.00 0.41 0.41 67 1014.3
20260905002404 77 183 0.0 4.0 0.00 0.41 0.41 67 1014.3
20260905002203 77 183 0.0 4.0 0.00 0.41 0.41 67 1014.3
20260905002003 77 182 0.0 1.0 0.00 0.41 0.41 67 1014.3
20260905001824 77 182 0.0 1.0 0.00 0.41 0.41 67 1014.2
20260905001624 77 182 0.0 1.0 0.00 0.41 0.41 67 1014.3
20260905001403 77 182 0.0 1.0 0.00 0.41 0.41 67 1014.3
20260905001203 78 0 0.0 0.0 0.00 0.41 0.41 66 1014.3
20260905001003 78 0 0.0 0.0 0.00 0.41 0.41 66 1014.3
20260905000803 78 0 0.0 0.0 0.00 0.41 0.41 66 1014.3
20260905000603 78 0 0.0 0.0 0.00 0.41 0.41 66 1014.3
20260905000425 78 0 0.0 0.0 0.00 0.41 0.41 66 1014.3
20260905000226 78 0 0.0 0.0 0.00 0.41 0.41 66 1014.3
20260905000003 78 0 0.0 0.0 0.00 0.41 0.41 66 1014.3
20260904235803 78 0 0.0 0.0 0.00 0.41 0.41 65 1014.3
20260904235603 78 0 0.0 0.0 0.00 0.41 0.41 65 1014.3
20260904235403 78 0 0.0 0.0 0.00 0.41 0.41 65 1014.3
20260904235203 79 0 0.0 0.0 0.00 0.41 0.41 65 1014.3
20260904235003 79 0 0.0 0.0 0.00 0.41 0.41 65 1014.4
20260904234803 79 0 0.0 0.0 0.00 0.41 0.41 65 1014.4
20260904234603 79 0 0.0 0.0 0.00 0.41 0.41 65 1014.4
20260904234403 79 182 0.0 3.0 0.00 0.41 0.41 65 1014.3
20260904234203 79 182 0.0 3.0 0.00 0.41 0.41 65 1014.4
20260904234003 79 182 0.0 3.0 0.00 0.41 0.41 64 1014.4
20260904233803 79 182 0.0 3.0 0.00 0.41 0.41 64 1014.4
20260904233624 79 187 0.0 4.0 0.00 0.41 0.41 64 1014.3
20260904233403 80 187 1.0 8.0 0.00 0.41 0.41 64 1014.3
20260904233203 80 187 1.0 8.0 0.00 0.41 0.41 64 1014.3
20260904233003 80 187 1.0 8.0 0.00 0.41 0.41 64 1014.3
20260904232824 80 183 1.0 8.0 0.00 0.41 0.41 63 1014.3
20260904232603 80 180 1.0 8.0 0.00 0.41 0.41 63 1014.4
20260904232403 80 171 0.0 4.0 0.00 0.41 0.41 64 1014.3
20260904232203 80 177 0.0 4.0 0.00 0.41 0.41 63 1014.4
20260904232003 80 176 0.0 4.0 0.00 0.41 0.41 63 1014.4
20260904231803 80 176 0.0 5.0 0.00 0.41 0.41 63 1014.4
20260904231603 80 179 1.0 6.0 0.00 0.41 0.41 62 1014.4
20260904231403 80 182 1.0 8.0 0.00 0.41 0.41 63 1014.4
20260904231203 81 181 1.0 8.0 0.00 0.41 0.41 63 1014.3
20260904231003 81 180 1.0 8.0 0.00 0.41 0.41 63 1014.3
20260904230824 81 182 1.0 8.0 0.00 0.41 0.41 62 1014.3
20260904230603 81 183 1.0 8.0 0.00 0.41 0.41 62 1014.3
20260904230403 81 183 0.0 5.0 0.00 0.41 0.41 63 1014.3
20260904230203 81 186 1.0 5.0 0.00 0.41 0.41 63 1014.3
20260904230003 81 184 1.0 6.0 0.00 0.41 0.41 62 1014.2
20260904225803 81 185 1.0 6.0 0.00 0.41 0.41 62 1014.2
20260904225603 81 185 1.0 6.0 0.00 0.41 0.41 63 1014.2
20260904225403 81 185 1.0 6.0 0.00 0.41 0.41 62 1014.2
20260904225203 81 184 1.0 6.0 0.00 0.41 0.41 62 1014.1
20260904225003 81 186 1.0 6.0 0.00 0.41 0.41 62 1014.2
20260904224803 81 182 0.0 4.0 0.00 0.41 0.41 62 1014.2
20260904224603 81 183 0.0 1.0 0.00 0.41 0.41 62 1014.3
20260904224403 81 183 0.0 4.0 0.00 0.41 0.41 62 1014.2
20260904224203 81 184 0.0 4.0 0.00 0.41 0.41 62 1014.2
20260904224003 81 186 0.0 4.0 0.00 0.41 0.41 62 1014.2
20260904223803 81 186 0.0 4.0 0.00 0.41 0.41 62 1014.1
20260904223603 81 186 0.0 4.0 0.00 0.41 0.41 62 1014.1
20260904223403 81 185 0.0 4.0 0.00 0.41 0.41 63 1014.0
20260904223203 81 183 0.0 4.0 0.00 0.41 0.41 62 1014.0
20260904223003 81 178 1.0 7.0 0.00 0.41 0.41 63 1013.9
20260904222803 81 172 1.0 7.0 0.00 0.41 0.41 62 1013.8
20260904222603 81 176 1.0 7.0 0.00 0.41 0.41 62 1013.8
20260904222403 81 177 1.0 7.0 0.00 0.41 0.41 62 1013.7
20260904222224 81 176 1.0 7.0 0.00 0.41 0.41 62 1013.7
20260904222003 82 175 1.0 5.0 0.00 0.41 0.41 62 1013.6
20260904221803 82 181 0.0 5.0 0.00 0.41 0.41 62 1013.6
20260904221603 82 175 0.0 4.0 0.00 0.41 0.41 62 1013.6
20260904221403 82 168 0.0 3.0 0.00 0.41 0.41 62 1013.6
20260904221203 82 180 0.0 4.0 0.00 0.41 0.41 62 1013.6
20260904221003 82 179 0.0 4.0 0.00 0.41 0.41 61 1013.6
20260904220803 82 181 0.0 4.0 0.00 0.41 0.41 61 1013.7
20260904220604 82 183 1.0 5.0 0.00 0.41 0.41 61 1013.6
20260904220403 82 186 1.0 6.0 0.00 0.41 0.41 61 1013.6
20260904220203 83 187 1.0 6.0 0.00 0.41 0.41 61 1013.5
20260904220003 83 188 1.0 6.0 0.00 0.41 0.41 60 1013.5
20260904215803 83 189 0.0 6.0 0.00 0.41 0.41 60 1013.6
20260904215603 83 189 0.0 6.0 0.00 0.41 0.41 60 1013.6
20260904215403 84 190 0.0 4.0 0.00 0.41 0.41 60 1013.5
20260904215203 84 191 0.0 4.0 0.00 0.41 0.41 60 1013.5
20260904215003 84 0 0.0 0.0 0.00 0.41 0.41 60 1013.5
20260904214803 84 0 0.0 0.0 0.00 0.41 0.41 59 1013.4
20260904214603 84 0 0.0 0.0 0.00 0.41 0.41 60 1013.4
20260904214424 84 0 0.0 0.0 0.00 0.41 0.41 59 1013.3
20260904214203 83 0 0.0 0.0 0.00 0.41 0.41 60 1013.3
20260904214003 83 0 0.0 0.0 0.00 0.41 0.41 58 1013.2
20260904213803 83 0 0.0 0.0 0.00 0.41 0.41 60 1013.3
20260904213624 83 0 0.0 0.0 0.00 0.41 0.41 60 1013.3
20260904213403 83 0 0.0 0.0 0.00 0.41 0.41 60 1013.4
20260904213203 83 0 0.0 0.0 0.00 0.41 0.41 60 1013.4
20260904213003 83 0 0.0 0.0 0.00 0.41 0.41 61 1013.4
20260904212803 82 0 0.0 0.0 0.00 0.42 0.41 61 1013.5
20260904212603 82 0 0.0 0.0 0.00 0.42 0.41 60 1013.6
20260904212403 82 0 0.0 0.0 0.00 0.42 0.41 61 1013.5
20260904212203 82 0 0.0 0.0 0.00 0.42 0.41 60 1013.5
20260904212003 82 0 0.0 0.0 0.00 0.42 0.41 61 1013.5
20260904211803 82 0 0.0 0.0 0.00 0.42 0.41 63 1013.5
20260904211603 82 0 0.0 0.0 0.00 0.42 0.41 61 1013.5
20260904211403 81 0 0.0 0.0 0.00 0.42 0.41 62 1013.4
20260904211203 81 0 0.0 0.0 0.00 0.42 0.41 61 1013.4
20260904211003 81 0 0.0 0.0 0.00 0.42 0.41 61 1013.3
20260904210803 81 54 0.0 1.0 0.00 0.42 0.41 62 1013.4
20260904210603 80 54 0.0 1.0 0.00 0.42 0.41 63 1013.3
20260904210403 80 54 0.0 1.0 0.00 0.42 0.41 62 1013.4
20260904210203 80 54 0.0 1.0 0.00 0.42 0.41 62 1013.4
20260904210003 80 54 0.0 1.0 0.00 0.42 0.41 62 1013.5
20260904205803 80 0 0.0 0.0 0.00 0.42 0.41 63 1013.5
20260904205603 80 0 0.0 0.0 0.00 0.42 0.41 63 1013.5
20260904205403 80 0 0.0 0.0 0.00 0.42 0.41 63 1013.5
20260904205224 80 0 0.0 0.0 0.00 0.42 0.41 62 1013.6
20260904205003 80 0 0.0 0.0 0.00 0.42 0.41 61 1013.5
20260904204803 80 0 0.0 0.0 0.00 0.42 0.41 61 1013.6
20260904204603 80 0 0.0 0.0 0.00 0.42 0.41 63 1013.5
20260904204424 80 0 0.0 0.0 0.00 0.42 0.41 62 1013.7
20260904204203 80 0 0.0 0.0 0.00 0.42 0.41 62 1013.7
20260904204003 80 0 0.0 0.0 0.00 0.42 0.41 62 1013.7
20260904203803 80 0 0.0 0.0 0.00 0.42 0.41 62 1013.7
20260904203603 80 0 0.0 0.0 0.00 0.42 0.41 63 1013.7
20260904203403 79 0 0.0 0.0 0.00 0.42 0.41 63 1013.7
20260904203224 79 0 0.0 0.0 0.00 0.42 0.41 63 1013.7
20260904203003 79 0 0.0 0.0 0.00 0.42 0.41 63 1013.6
20260904202803 79 0 0.0 0.0 0.00 0.42 0.41 64 1013.7
20260904202603 79 0 0.0 0.0 0.00 0.42 0.41 64 1013.6
20260904202403 79 0 0.0 0.0 0.00 0.42 0.41 63 1013.6
20260904202203 79 0 0.0 0.0 0.00 0.42 0.41 63 1013.5
20260904202003 79 0 0.0 0.0 0.00 0.42 0.41 63 1013.6
20260904201803 79 0 0.0 0.0 0.00 0.42 0.41 63 1013.5
20260904201603 79 0 0.0 0.0 0.00 0.42 0.41 63 1013.5
20260904201403 79 0 0.0 0.0 0.00 0.42 0.41 63 1013.5
20260904201224 79 0 0.0 0.0 0.00 0.42 0.41 63 1013.4
20260904201003 78 0 0.0 0.0 0.00 0.42 0.41 63 1013.4
20260904200803 78 0 0.0 0.0 0.00 0.42 0.41 62 1013.5
20260904200603 78 0 0.0 0.0 0.00 0.42 0.41 63 1013.6
20260904200403 78 0 0.0 0.0 0.00 0.42 0.41 63 1013.8
20260904200203 78 0 0.0 0.0 0.00 0.42 0.41 63 1013.8
20260904200003 78 0 0.0 0.0 0.00 0.42 0.41 64 1013.9
20260904195803 78 0 0.0 0.0 0.00 0.42 0.41 64 1013.9
20260904195603 78 0 0.0 0.0 0.00 0.42 0.41 63 1013.9
20260904195403 77 0 0.0 0.0 0.00 0.42 0.41 64 1013.9
20260904195224 77 0 0.0 0.0 0.00 0.42 0.41 64 1013.7
20260904195003 77 0 0.0 0.0 0.00 0.42 0.41 64 1013.7
20260904194824 77 0 0.0 0.0 0.00 0.42 0.41 64 1013.8
20260904194603 77 0 0.0 0.0 0.00 0.42 0.41 63 1013.8
20260904194403 77 0 0.0 0.0 0.00 0.42 0.41 63 1013.8
20260904194203 77 0 0.0 0.0 0.00 0.42 0.41 64 1013.8
20260904194003 76 0 0.0 0.0 0.00 0.42 0.41 65 1013.9
20260904193803 76 0 0.0 0.0 0.00 0.42 0.41 65 1013.8
20260904193603 76 0 0.0 0.0 0.00 0.42 0.41 65 1013.8
20260904193403 76 0 0.0 0.0 0.00 0.42 0.41 66 1013.8
20260904193224 75 0 0.0 0.0 0.00 0.42 0.41 66 1013.8
20260904193024 75 0 0.0 0.0 0.00 0.42 0.41 66 1013.4
20260904192803 75 0 0.0 0.0 0.00 0.42 0.41 66 1013.7
20260904192624 74 0 0.0 0.0 0.00 0.42 0.41 66 1013.9
20260904192403 74 0 0.0 0.0 0.00 0.42 0.41 68 1014.0
20260904192203 74 0 0.0 0.0 0.00 0.42 0.41 67 1014.0
20260904192003 74 0 0.0 0.0 0.00 0.42 0.41 67 1014.1
20260904191803 74 0 0.0 0.0 0.00 0.42 0.41 68 1014.3
20260904191603 73 0 0.0 0.0 0.00 0.42 0.41 68 1014.4
20260904191403 73 326 0.0 1.0 0.00 0.42 0.41 68 1014.5
20260904191203 73 332 1.0 5.0 0.00 0.42 0.41 68 1014.6
20260904191003 73 320 1.0 7.0 0.00 0.42 0.41 68 1014.7
20260904190803 73 313 1.0 7.0 0.00 0.42 0.41 68 1014.8
20260904190603 73 320 2.0 7.0 0.00 0.42 0.41 68 1014.8
20260904190403 73 320 2.0 7.0 0.00 0.42 0.41 68 1014.7
20260904190224 73 320 2.0 7.0 0.01 0.42 0.41 67 1014.6
20260904190024 73 317 1.0 6.0 0.01 0.42 0.41 68 1014.6
20260904185803 72 321 1.0 5.0 0.01 0.42 0.41 68 1014.3
20260904185603 72 314 2.0 6.0 0.01 0.42 0.41 69 1014.2
20260904185403 72 313 3.0 6.0 0.01 0.42 0.41 69 1014.1
20260904185203 72 316 3.0 6.0 0.01 0.42 0.41 69 1014.1
20260904185003 72 316 3.0 6.0 0.01 0.42 0.41 68 1014.1
20260904184824 71 316 3.0 6.0 0.01 0.42 0.41 69 1014.2
20260904184603 71 316 2.0 6.0 0.01 0.42 0.41 69 1014.3
20260904184403 71 317 2.0 6.0 0.01 0.42 0.41 70 1014.2
20260904184203 71 307 2.0 5.0 0.01 0.42 0.41 70 1014.0
20260904184024 71 304 1.0 5.0 0.01 0.42 0.41 69 1013.7
20260904183803 71 300 2.0 7.0 0.01 0.42 0.41 69 1013.6
20260904183624 71 300 2.0 7.0 0.01 0.42 0.41 70 1013.8
20260904183403 70 298 3.0 8.0 0.01 0.42 0.41 70 1013.9
20260904183224 70 297 3.0 8.0 0.01 0.42 0.41 70 1014.1
20260904183024 70 298 4.0 9.0 0.01 0.42 0.41 70 1014.2
20260904182803 70 299 4.0 9.0 0.01 0.42 0.41 70 1014.3
20260904182624 70 302 4.0 9.0 0.01 0.42 0.41 70 1014.3
20260904182403 70 303 5.0 9.0 0.01 0.42 0.41 70 1014.5
20260904182203 70 305 4.0 9.0 0.01 0.42 0.41 70 1014.7
20260904182003 70 306 4.0 7.0 0.01 0.42 0.41 70 1014.9
20260904181803 70 305 4.0 8.0 0.01 0.42 0.41 70 1014.9
20260904181603 70 302 5.0 9.0 0.01 0.42 0.41 70 1014.8
20260904181403 70 302 5.0 9.0 0.02 0.42 0.41 70 1014.9
20260904181203 70 301 6.0 10.0 0.02 0.42 0.41 70 1014.9
20260904181003 70 300 6.0 10.0 0.02 0.42 0.41 69 1014.8
20260904180803 70 300 6.0 10.0 0.02 0.42 0.41 69 1014.9
20260904180603 70 300 6.0 11.0 0.02 0.42 0.41 69 1015.0
20260904180403 70 299 6.0 11.0 0.02 0.42 0.41 69 1015.0
20260904180203 70 300 6.0 12.0 0.02 0.41 0.40 69 1015.0
20260904180003 70 299 6.0 12.0 0.03 0.41 0.40 71 1015.2
20260904175803 70 301 7.0 12.0 0.05 0.41 0.40 71 1015.3
20260904175603 70 301 7.0 12.0 0.13 0.41 0.40 72 1015.4
20260904175403 71 303 7.0 12.0 0.18 0.41 0.40 72 1015.3
20260904175224 71 304 7.0 12.0 0.19 0.41 0.40 73 1015.3
20260904175003 71 305 7.0 12.0 0.23 0.41 0.40 73 1015.4
20260904174803 71 305 7.0 12.0 0.25 0.41 0.40 73 1015.5
20260904174603 71 308 7.0 15.0 0.25 0.41 0.40 73 1015.3
20260904174403 71 307 7.0 15.0 0.25 0.41 0.40 74 1015.2
20260904174203 72 306 7.0 15.0 0.25 0.41 0.40 73 1015.3
20260904174003 71 305 7.0 15.0 0.25 0.41 0.40 74 1015.4
20260904173803 71 305 6.0 15.0 0.25 0.41 0.40 74 1015.6
20260904173603 71 301 5.0 10.0 0.25 0.41 0.40 73 1015.1
20260904173403 71 299 5.0 10.0 0.25 0.41 0.40 73 1014.8
20260904173203 70 298 4.0 10.0 0.25 0.41 0.40 72 1014.7
20260904173024 70 298 4.0 9.0 0.25 0.41 0.40 72 1014.6
20260904172803 70 296 4.0 9.0 0.25 0.41 0.40 72 1014.5
20260904172624 70 296 4.0 10.0 0.25 0.41 0.40 72 1014.5
20260904172424 70 295 4.0 11.0 0.25 0.41 0.40 72 1014.5
20260904172224 70 294 5.0 11.0 0.25 0.41 0.40 72 1014.8
20260904172003 70 297 5.0 11.0 0.25 0.41 0.40 72 1014.9
20260904171803 70 299 6.0 11.0 0.25 0.41 0.40 71 1015.1
20260904171603 70 300 6.0 11.0 0.25 0.41 0.40 71 1015.8
20260904171403 70 302 6.0 11.0 0.24 0.40 0.40 72 1016.3
20260904171224 70 303 7.0 12.0 0.24 0.40 0.39 72 1016.4
20260904171003 70 304 8.0 12.0 0.24 0.40 0.39 72 1016.3
20260904170803 70 305 9.0 15.0 0.24 0.40 0.39 71 1016.4
20260904170603 70 306 10.0 16.0 0.24 0.40 0.39 71 1016.7
20260904170403 71 310 10.0 16.0 0.24 0.40 0.39 71 1016.9
20260904170224 71 311 9.0 16.0 0.23 0.39 0.38 70 1017.0
20260904170003 71 318 10.0 16.0 0.22 0.38 0.37 70 1017.3
20260904165824 71 330 10.0 19.0 0.20 0.36 0.35 68 1017.6
20260904165404 73 357 8.0 19.0 0.07 0.23 0.23 69 1017.9
20260904165203 73 360 7.0 19.0 0.06 0.22 0.21 69 1018.2
20260904165003 73 2 5.0 19.0 0.02 0.18 0.17 68 1018.3
20260904164803 74 351 3.0 19.0 0.00 0.16 0.15 69 1018.4
20260904164603 74 299 3.0 5.0 0.00 0.16 0.15 69 1016.2
20260904164424 74 295 3.0 5.0 0.00 0.16 0.15 68 1015.9
20260904164203 74 294 2.0 5.0 0.00 0.16 0.15 68 1015.7
20260904164003 74 294 1.0 5.0 0.00 0.16 0.15 68 1015.7
20260904163824 74 295 1.0 5.0 0.00 0.16 0.15 68 1015.8
20260904163624 74 295 1.0 5.0 0.00 0.16 0.15 68 1016.0
20260904163404 74 288 0.0 4.0 0.00 0.16 0.15 68 1016.2
20260904163203 74 290 0.0 2.0 0.00 0.16 0.15 68 1016.2
20260904163003 74 0 0.0 0.0 0.00 0.16 0.15 68 1016.3
20260904162803 74 0 0.0 0.0 0.00 0.16 0.15 68 1016.2
20260904162603 74 0 0.0 0.0 0.00 0.16 0.15 68 1016.1
20260904162403 74 304 0.0 1.0 0.00 0.16 0.15 69 1016.2
20260904162203 74 297 0.0 8.0 0.00 0.16 0.15 69 1016.2
20260904162024 74 297 0.0 8.0 0.00 0.16 0.15 69 1016.2
20260904161803 74 297 0.0 8.0 0.00 0.16 0.15 69 1016.2
20260904161603 74 302 1.0 8.0 0.00 0.16 0.15 69 1016.2
20260904161403 74 302 0.0 8.0 0.00 0.16 0.15 68 1016.3
20260904161203 74 306 0.0 5.0 0.00 0.16 0.15 70 1016.2
20260904161003 73 306 0.0 5.0 0.00 0.16 0.15 70 1016.3
20260904160803 73 301 0.0 5.0 0.00 0.16 0.15 70 1016.2
20260904160624 73 285 0.0 4.0 0.00 0.16 0.15 72 1016.2
20260904160403 73 283 0.0 4.0 0.00 0.16 0.15 74 1016.4
20260904160203 72 283 0.0 4.0 0.00 0.16 0.15 74 1016.4
20260904160003 72 282 0.0 4.0 0.00 0.16 0.15 76 1016.4
20260904155803 72 276 0.0 6.0 0.00 0.16 0.15 76 1016.5
20260904155624 72 276 0.0 6.0 0.00 0.16 0.15 76 1016.5
20260904155403 72 276 0.0 6.0 0.00 0.16 0.15 76 1016.6
20260904155203 72 230 0.0 6.0 0.00 0.16 0.15 76 1016.7
20260904155003 71 222 0.0 6.0 0.00 0.16 0.15 77 1016.8
20260904154803 71 195 0.0 6.0 0.00 0.16 0.15 77 1016.8
20260904154603 71 194 0.0 6.0 0.00 0.16 0.15 77 1016.8
20260904154403 71 210 0.0 6.0 0.00 0.16 0.15 76 1017.0
20260904154224 71 235 0.0 4.0 0.00 0.16 0.15 77 1017.0
20260904154003 71 230 0.0 4.0 0.00 0.16 0.15 76 1017.1
20260904153803 71 194 1.0 9.0 0.00 0.16 0.15 76 1017.1
20260904153603 70 194 1.0 9.0 0.00 0.16 0.15 76 1017.1
20260904153403 70 192 1.0 9.0 0.01 0.16 0.15 76 1017.3
20260904153203 70 191 1.0 9.0 0.01 0.16 0.15 76 1017.4
20260904153003 70 190 1.0 9.0 0.01 0.16 0.15 76 1017.4
20260904152803 70 190 1.0 5.0 0.02 0.16 0.15 77 1017.4
20260904152604 70 188 1.0 4.0 0.03 0.16 0.15 77 1017.5
20260904152404 70 185 1.0 7.0 0.04 0.16 0.15 77 1017.7
20260904152203 70 186 1.0 7.0 0.05 0.16 0.15 76 1017.7
20260904152024 70 187 1.0 7.0 0.08 0.16 0.15 76 1017.8
20260904151803 70 185 0.0 7.0 0.10 0.16 0.15 76 1017.7
20260904151624 70 186 0.0 7.0 0.10 0.16 0.15 76 1017.7
20260904151403 70 192 1.0 9.0 0.10 0.16 0.15 76 1017.8
20260904151203 70 187 1.0 9.0 0.10 0.16 0.15 76 1017.8
20260904151003 70 187 2.0 9.0 0.10 0.16 0.15 76 1017.6
20260904150824 70 187 2.0 9.0 0.10 0.16 0.15 76 1017.6
20260904150624 70 185 2.0 9.0 0.10 0.16 0.15 76 1017.5
20260904150403 70 182 2.0 7.0 0.10 0.16 0.15 76 1017.6
20260904150224 70 184 2.0 7.0 0.10 0.16 0.15 76 1017.6
20260904150003 70 180 3.0 7.0 0.10 0.16 0.15 76 1017.5
20260904145803 70 181 3.0 8.0 0.10 0.16 0.15 76 1017.5
20260904145603 70 184 4.0 9.0 0.10 0.16 0.15 75 1017.5
20260904145403 70 184 4.0 9.0 0.10 0.16 0.15 75 1017.5
20260904145203 70 185 4.0 10.0 0.10 0.16 0.15 75 1017.6
20260904145003 70 189 4.0 10.0 0.10 0.16 0.15 74 1017.7
20260904144803 70 189 3.0 10.0 0.10 0.16 0.15 74 1017.9
20260904144624 70 189 3.0 10.0 0.10 0.16 0.15 74 1017.9
20260904144424 70 187 3.0 10.0 0.10 0.16 0.15 74 1018.3
20260904144203 70 187 2.0 8.0 0.10 0.16 0.15 74 1018.5
20260904144024 70 182 2.0 8.0 0.10 0.16 0.15 74 1018.7
20260904143803 70 184 1.0 8.0 0.10 0.16 0.15 74 1018.5
20260904143603 70 180 1.0 8.0 0.10 0.16 0.15 74 1018.4
20260904143403 70 186 1.0 7.0 0.09 0.15 0.14 74 1018.2
20260904143203 71 181 1.0 8.0 0.09 0.15 0.14 74 1018.2
20260904143003 71 181 1.0 8.0 0.09 0.15 0.14 74 1018.3
20260904142803 71 183 2.0 8.0 0.08 0.14 0.13 74 1018.1
20260904142624 71 183 2.0 8.0 0.07 0.13 0.12 74 1018.1
20260904142403 71 183 1.0 8.0 0.06 0.12 0.12 74 1018.2
20260904142224 71 184 1.0 8.0 0.05 0.11 0.10 74 1018.0
20260904142004 71 193 1.0 5.0 0.02 0.08 0.07 74 1018.1
20260904141824 71 192 0.0 5.0 0.00 0.06 0.05 73 1018.1
20260904141603 71 200 0.0 4.0 0.00 0.06 0.05 74 1018.1
20260904141424 71 175 0.0 6.0 0.00 0.06 0.05 74 1017.9
20260904141203 71 177 0.0 6.0 0.00 0.06 0.05 74 1017.9
20260904141024 71 161 1.0 6.0 0.00 0.06 0.05 74 1017.8
20260904140803 71 166 1.0 6.0 0.00 0.06 0.05 74 1017.8
20260904140627 71 177 1.0 6.0 0.00 0.06 0.05 73 1017.6
20260904140404 71 181 2.0 6.0 0.00 0.06 0.05 74 1017.4
20260904140203 71 182 2.0 6.0 0.00 0.06 0.05 74 1017.3
20260904140024 71 187 2.0 7.0 0.01 0.06 0.05 73 1017.2
20260904135803 71 188 2.0 7.0 0.01 0.06 0.05 73 1017.0
20260904135603 71 187 1.0 7.0 0.01 0.06 0.05 73 1016.8
20260904135424 71 185 1.0 7.0 0.01 0.06 0.05 73 1016.7
20260904135203 71 185 0.0 7.0 0.01 0.06 0.05 74 1016.7
20260904135003 72 185 0.0 5.0 0.01 0.06 0.05 74 1016.7
20260904134803 72 184 0.0 4.0 0.01 0.06 0.05 74 1016.7
20260904134603 72 184 0.0 4.0 0.01 0.06 0.05 74 1016.7
20260904134403 72 190 0.0 3.0 0.01 0.06 0.05 74 1016.7
20260904134203 72 190 0.0 3.0 0.01 0.06 0.05 74 1016.7
20260904134003 72 0 0.0 0.0 0.01 0.06 0.05 74 1016.6
20260904133803 72 0 0.0 0.0 0.03 0.06 0.05 74 1016.5
20260904133603 72 0 0.0 0.0 0.04 0.06 0.05 74 1016.5
20260904133403 72 0 0.0 0.0 0.05 0.06 0.05 74 1016.4
20260904133203 72 0 0.0 0.0 0.05 0.06 0.05 74 1016.4
20260904133003 72 0 0.0 0.0 0.05 0.06 0.05 74 1016.4
20260904132803 72 0 0.0 0.0 0.05 0.06 0.05 74 1016.3
20260904132603 72 0 0.0 0.0 0.05 0.06 0.05 74 1016.2
20260904132403 72 0 0.0 0.0 0.05 0.06 0.05 74 1016.2
20260904132203 72 0 0.0 0.0 0.05 0.06 0.05 74 1016.2
20260904132003 72 164 0.0 2.0 0.05 0.06 0.05 74 1016.1
20260904131803 72 179 0.0 3.0 0.05 0.06 0.05 74 1015.9
20260904131603 71 179 0.0 3.0 0.05 0.06 0.05 74 1015.8
20260904131424 71 179 0.0 3.0 0.05 0.06 0.05 73 1015.8
20260904131203 71 179 0.0 3.0 0.05 0.06 0.05 73 1015.8
20260904131003 71 188 0.0 5.0 0.05 0.06 0.05 72 1015.6
20260904130803 71 183 0.0 5.0 0.05 0.06 0.05 72 1015.6
20260904130603 71 183 1.0 5.0 0.05 0.06 0.05 72 1015.7
20260904130403 72 182 1.0 5.0 0.05 0.06 0.05 71 1015.8
20260904130203 72 174 1.0 5.0 0.05 0.06 0.05 71 1015.9
20260904130003 72 167 1.0 5.0 0.04 0.05 0.04 71 1016.1
20260904125803 72 158 1.0 3.0 0.04 0.05 0.04 70 1016.2
20260904125603 72 158 1.0 3.0 0.04 0.05 0.04 70 1016.3
20260904125403 72 139 0.0 3.0 0.04 0.05 0.04 71 1016.3
20260904125203 72 113 0.0 1.0 0.04 0.05 0.04 70 1016.2
20260904125003 72 113 0.0 1.0 0.04 0.05 0.04 70 1016.2
20260904124803 72 113 0.0 1.0 0.04 0.05 0.04 70 1016.1
20260904124603 72 88 1.0 7.0 0.04 0.05 0.04 70 1016.2
20260904124403 72 89 2.0 9.0 0.04 0.05 0.04 70 1016.2
20260904124203 72 90 3.0 9.0 0.04 0.05 0.04 70 1016.2
20260904124003 72 89 5.0 13.0 0.04 0.05 0.04 70 1016.2
20260904123803 72 89 5.0 15.0 0.02 0.03 0.02 70 1016.3
20260904123603 72 89 4.0 15.0 0.01 0.02 0.01 70 1016.2
20260904123403 72 89 4.0 15.0 0.00 0.01 0.00 69 1016.5
20260904123203 72 89 2.0 15.0 0.00 0.01 0.00 69 1016.6
20260904123004 72 90 1.0 15.0 0.00 0.01 0.00 69 1016.4
20260904122824 72 94 0.0 4.0 0.00 0.01 0.00 69 1015.6
20260904122603 72 0 0.0 0.0 0.00 0.01 0.00 69 1015.2
20260904122424 72 0 0.0 0.0 0.00 0.01 0.00 69 1014.9
20260904122224 72 0 0.0 0.0 0.00 0.01 0.00 69 1014.9
20260904122003 72 0 0.0 0.0 0.00 0.01 0.00 69 1015.0
20260904121803 72 0 0.0 0.0 0.00 0.01 0.00 69 1015.0
20260904121603 72 0 0.0 0.0 0.00 0.01 0.00 69 1015.0
20260904121403 72 0 0.0 0.0 0.00 0.01 0.00 69 1015.0
20260904121203 72 0 0.0 0.0 0.00 0.01 0.00 69 1014.9
20260904121004 72 0 0.0 0.0 0.00 0.01 0.00 69 1014.8
20260904120803 72 245 0.0 2.0 0.00 0.01 0.00 69 1014.8
20260904120603 72 244 0.0 2.0 0.00 0.01 0.00 69 1014.8
20260904120424 72 243 0.0 2.0 0.00 0.01 0.00 69 1014.9
20260904120203 72 268 0.0 2.0 0.00 0.01 0.00 69 1015.0
20260904120024 72 268 0.0 2.0 0.00 0.01 0.00 69 1015.0
20260904115803 72 281 0.0 2.0 0.00 0.01 0.00 69 1015.1
20260904115603 72 279 0.0 2.0 0.00 0.01 0.00 69 1015.1
20260904115403 72 280 0.0 2.0 0.00 0.01 0.00 69 1015.1
20260904115203 72 206 0.0 2.0 0.00 0.01 0.00 69 1015.1
20260904115003 72 201 0.0 2.0 0.00 0.01 0.00 69 1015.1
20260904114803 72 197 0.0 4.0 0.00 0.01 0.00 69 1015.2
20260904114624 72 197 0.0 4.0 0.00 0.01 0.00 69 1015.2
20260904114403 72 195 0.0 4.0 0.00 0.01 0.00 69 1015.2
20260904114203 72 195 0.0 4.0 0.00 0.01 0.00 69 1015.2
20260904114003 72 195 0.0 4.0 0.00 0.01 0.00 69 1015.1
20260904113824 72 0 0.0 0.0 0.00 0.01 0.00 69 1015.1
20260904113603 72 0 0.0 0.0 0.00 0.01 0.00 69 1015.1
20260904113403 72 197 1.0 7.0 0.00 0.01 0.00 69 1015.1
20260904113203 72 194 1.0 7.0 0.00 0.01 0.00 69 1015.1
20260904113003 72 193 1.0 7.0 0.00 0.01 0.00 69 1015.1
20260904112803 72 193 1.0 7.0 0.00 0.01 0.00 69 1015.1
20260904112603 72 193 1.0 7.0 0.00 0.01 0.00 69 1015.2
20260904112403 72 189 0.0 5.0 0.00 0.01 0.00 69 1015.3
20260904112203 72 190 0.0 5.0 0.00 0.01 0.00 69 1015.3
20260904112003 72 191 0.0 5.0 0.00 0.01 0.00 69 1015.2
20260904111804 72 186 0.0 4.0 0.00 0.01 0.00 70 1015.2
20260904111603 72 178 0.0 1.0 0.00 0.01 0.00 70 1015.1
20260904111403 72 178 1.0 7.0 0.00 0.01 0.00 70 1015.0
20260904111203 72 180 1.0 7.0 0.00 0.01 0.00 71 1015.1
20260904111024 72 180 1.0 7.0 0.00 0.01 0.00 71 1015.2
20260904110803 72 180 1.0 7.0 0.00 0.01 0.00 71 1015.3
20260904110603 72 180 1.0 7.0 0.00 0.01 0.00 71 1015.3
20260904110424 72 180 0.0 6.0 0.00 0.01 0.00 71 1015.3
20260904110203 72 179 0.0 1.0 0.00 0.01 0.00 72 1015.3
20260904110003 71 179 0.0 1.0 0.00 0.01 0.00 72 1015.2
20260904105803 71 175 1.0 5.0 0.00 0.01 0.00 73 1015.1
20260904105624 71 171 1.0 6.0 0.00 0.01 0.00 73 1015.1
20260904105403 71 172 2.0 6.0 0.00 0.01 0.00 74 1015.2
20260904105203 71 170 3.0 6.0 0.00 0.01 0.00 74 1015.3
20260904105003 71 168 3.0 6.0 0.00 0.01 0.00 74 1015.2
20260904104803 70 170 3.0 6.0 0.00 0.01 0.00 74 1015.2
20260904104603 70 191 3.0 10.0 0.00 0.01 0.00 74 1015.2
20260904104403 70 180 3.0 10.0 0.00 0.01 0.00 75 1015.0
20260904104203 70 184 3.0 10.0 0.00 0.01 0.00 76 1014.9
20260904104003 70 189 3.0 10.0 0.00 0.01 0.00 77 1014.9
20260904103803 70 179 4.0 10.0 0.00 0.01 0.00 78 1014.5
20260904103603 70 169 5.0 14.0 0.00 0.01 0.00 74 1014.6
20260904103403 69 175 5.0 14.0 0.00 0.01 0.00 73 1014.7
20260904103224 69 177 6.0 14.0 0.00 0.01 0.00 73 1014.7
20260904103003 69 180 5.0 14.0 0.00 0.01 0.00 73 1014.7
20260904102803 69 182 4.0 14.0 0.00 0.01 0.00 73 1014.6
20260904102603 69 186 3.0 11.0 0.00 0.01 0.00 72 1014.6
20260904102424 69 188 2.0 11.0 0.00 0.01 0.00 72 1014.4
20260904102203 69 197 1.0 4.0 0.00 0.01 0.00 72 1014.3
20260904102003 70 203 0.0 3.0 0.00 0.01 0.00 72 1014.2
20260904101803 70 0 0.0 0.0 0.00 0.01 0.00 72 1014.0
20260904101603 70 0 0.0 0.0 0.00 0.01 0.00 72 1014.0
20260904101403 70 0 0.0 0.0 0.00 0.01 0.00 72 1013.9
20260904101203 70 0 0.0 0.0 0.00 0.01 0.00 72 1013.9
20260904101003 70 0 0.0 0.0 0.00 0.01 0.00 72 1013.9
20260904100803 70 0 0.0 0.0 0.00 0.01 0.00 72 1013.9
20260904100603 70 0 0.0 0.0 0.00 0.01 0.00 72 1013.8
20260904100403 70 0 0.0 0.0 0.00 0.01 0.00 72 1013.8
20260904100203 70 0 0.0 0.0 0.00 0.01 0.00 71 1013.9
20260904100003 70 0 0.0 0.0 0.00 0.01 0.00 71 1013.9
20260904095803 70 0 0.0 0.0 0.00 0.01 0.00 71 1014.0
20260904095603 70 0 0.0 0.0 0.00 0.01 0.00 71 1013.9
20260904095403 70 0 0.0 0.0 0.00 0.01 0.00 71 1013.9
20260904095224 70 0 0.0 0.0 0.00 0.01 0.00 71 1013.9
20260904095003 70 0 0.0 0.0 0.00 0.01 0.00 71 1013.9
20260904094803 70 0 0.0 0.0 0.00 0.01 0.00 71 1013.8
20260904094603 70 0 0.0 0.0 0.00 0.01 0.00 71 1013.9
20260904094403 70 0 0.0 0.0 0.00 0.01 0.00 71 1013.8
20260904094203 70 0 0.0 0.0 0.00 0.01 0.00 71 1013.8
20260904094003 70 0 0.0 0.0 0.00 0.01 0.00 71 1013.7
20260904093803 70 0 0.0 0.0 0.00 0.01 0.00 71 1013.7
20260904093603 70 0 0.0 0.0 0.00 0.01 0.00 71 1013.7
20260904093403 70 0 0.0 0.0 0.00 0.01 0.00 71 1013.6
20260904093203 70 0 0.0 0.0 0.00 0.01 0.00 71 1013.5
20260904093003 70 0 0.0 0.0 0.00 0.01 0.00 71 1013.4
20260904092803 70 0 0.0 0.0 0.00 0.01 0.00 71 1013.3
20260904092624 70 0 0.0 0.0 0.00 0.01 0.00 71 1013.3
20260904092424 70 0 0.0 0.0 0.00 0.01 0.00 71 1013.2
20260904092203 70 0 0.0 0.0 0.00 0.01 0.00 71 1013.1
20260904092003 70 0 0.0 0.0 0.00 0.01 0.00 71 1013.2
20260904091803 70 0 0.0 0.0 0.00 0.01 0.00 71 1013.2
20260904091624 70 0 0.0 0.0 0.00 0.01 0.00 71 1013.3
20260904091403 70 0 0.0 0.0 0.00 0.01 0.00 72 1013.4
20260904091203 70 0 0.0 0.0 0.00 0.01 0.00 72 1013.5
20260904091003 70 0 0.0 0.0 0.00 0.01 0.00 72 1013.5
20260904090803 70 0 0.0 0.0 0.00 0.01 0.00 72 1013.6
20260904090624 70 0 0.0 0.0 0.00 0.01 0.00 72 1013.6
20260904090403 70 0 0.0 0.0 0.00 0.01 0.00 73 1013.6
20260904090203 70 0 0.0 0.0 0.00 0.01 0.00 73 1013.6
20260904090003 70 0 0.0 0.0 0.00 0.01 0.00 73 1013.6
20260904085824 70 0 0.0 0.0 0.00 0.01 0.00 73 1013.7
20260904085603 69 0 0.0 0.0 0.00 0.01 0.00 73 1013.9
20260904085403 69 0 0.0 0.0 0.00 0.01 0.00 72 1014.0
20260904085203 69 0 0.0 0.0 0.00 0.01 0.00 72 1014.1
20260904085003 69 0 0.0 0.0 0.00 0.01 0.00 72 1014.1
20260904084803 69 0 0.0 0.0 0.00 0.01 0.00 72 1014.2
20260904084603 69 0 0.0 0.0 0.00 0.01 0.00 71 1014.1
20260904084424 69 0 0.0 0.0 0.00 0.01 0.00 72 1014.1
20260904084203 70 0 0.0 0.0 0.00 0.01 0.00 72 1014.1
20260904084003 70 0 0.0 0.0 0.00 0.01 0.00 72 1014.2
20260904083804 70 0 0.0 0.0 0.00 0.01 0.00 72 1014.2
20260904083603 70 0 0.0 0.0 0.00 0.01 0.00 72 1014.1
20260904083404 70 0 0.0 0.0 0.00 0.01 0.00 72 1014.1
20260904083203 70 0 0.0 0.0 0.00 0.01 0.00 72 1014.2
20260904083003 70 0 0.0 0.0 0.00 0.01 0.00 72 1014.1
20260904082824 70 0 0.0 0.0 0.00 0.01 0.00 72 1014.1
20260904082603 70 0 0.0 0.0 0.00 0.01 0.00 71 1014.0
20260904082403 70 0 0.0 0.0 0.00 0.01 0.00 71 1014.0
20260904082203 70 0 0.0 0.0 0.00 0.01 0.00 71 1013.9
20260904082003 70 0 0.0 0.0 0.00 0.01 0.00 71 1013.9
20260904081803 70 0 0.0 0.0 0.00 0.01 0.00 72 1014.0
20260904081603 70 0 0.0 0.0 0.00 0.01 0.00 71 1014.0
20260904081403 70 0 0.0 0.0 0.00 0.01 0.00 71 1014.1
20260904081224 70 0 0.0 0.0 0.00 0.01 0.00 72 1014.2
20260904081003 70 0 0.0 0.0 0.00 0.01 0.00 72 1014.3
20260904080803 70 0 0.0 0.0 0.00 0.01 0.00 71 1014.3
20260904080603 70 0 0.0 0.0 0.00 0.01 0.00 71 1014.3
20260904080424 70 0 0.0 0.0 0.00 0.01 0.00 71 1014.3
20260904080203 70 0 0.0 0.0 0.00 0.01 0.00 71 1014.3
20260904080003 70 0 0.0 0.0 0.00 0.01 0.00 71 1014.3
20260904075824 70 0 0.0 0.0 0.00 0.01 0.00 71 1014.3
20260904075624 70 0 0.0 0.0 0.00 0.01 0.00 71 1014.3
20260904075403 70 0 0.0 0.0 0.00 0.01 0.00 71 1014.2
20260904075203 70 0 0.0 0.0 0.00 0.01 0.00 71 1014.2
20260904075003 70 0 0.0 0.0 0.00 0.01 0.00 71 1014.1
20260904074803 70 0 0.0 0.0 0.00 0.01 0.00 71 1014.0
20260904074603 70 0 0.0 0.0 0.00 0.01 0.00 72 1014.0
20260904074424 70 0 0.0 0.0 0.00 0.01 0.00 72 1014.0
20260904074203 70 0 0.0 0.0 0.00 0.01 0.00 72 1014.0
20260904074003 70 0 0.0 0.0 0.00 0.01 0.00 72 1014.0
20260904073803 70 0 0.0 0.0 0.00 0.01 0.00 72 1014.1
20260904073603 70 0 0.0 0.0 0.00 0.01 0.00 72 1014.1
20260904073403 70 0 0.0 0.0 0.00 0.01 0.00 72 1014.1
20260904073203 70 0 0.0 0.0 0.00 0.01 0.00 72 1014.1
20260904073003 70 0 0.0 0.0 0.00 0.01 0.00 72 1014.2
20260904072803 70 0 0.0 0.0 0.00 0.01 0.00 72 1014.1
20260904072603 70 0 0.0 0.0 0.00 0.01 0.00 72 1014.1
20260904072424 70 0 0.0 0.0 0.00 0.01 0.00 72 1014.1
20260904072203 70 0 0.0 0.0 0.00 0.01 0.00 72 1014.1
20260904072024 70 0 0.0 0.0 0.00 0.01 0.00 72 1014.2
20260904071803 70 0 0.0 0.0 0.00 0.01 0.00 72 1014.1
20260904071603 70 0 0.0 0.0 0.00 0.01 0.00 72 1014.1
20260904071403 70 0 0.0 0.0 0.00 0.01 0.00 73 1014.1
20260904071203 70 0 0.0 0.0 0.00 0.01 0.00 73 1014.2
20260904071003 70 0 0.0 0.0 0.00 0.01 0.00 73 1014.3
20260904070803 70 0 0.0 0.0 0.00 0.01 0.00 73 1014.3
20260904070624 69 0 0.0 0.0 0.00 0.01 0.00 73 1014.3
20260904070403 69 0 0.0 0.0 0.00 0.01 0.00 73 1014.4
20260904070203 69 0 0.0 0.0 0.00 0.01 0.00 73 1014.5
20260904070003 69 0 0.0 0.0 0.00 0.01 0.00 73 1014.5
20260904065824 69 0 0.0 0.0 0.00 0.01 0.00 73 1014.6
20260904065603 69 0 0.0 0.0 0.00 0.01 0.00 73 1014.6
20260904065403 69 0 0.0 0.0 0.00 0.01 0.00 73 1014.7
20260904065203 69 0 0.0 0.0 0.00 0.01 0.00 73 1014.7
20260904065003 69 0 0.0 0.0 0.00 0.01 0.00 73 1014.8
20260904064803 69 0 0.0 0.0 0.00 0.01 0.00 73 1014.9
20260904064603 69 0 0.0 0.0 0.00 0.01 0.00 72 1014.9
20260904064403 69 0 0.0 0.0 0.00 0.01 0.00 72 1014.9
20260904064203 69 0 0.0 0.0 0.00 0.01 0.00 72 1015.0
20260904064003 69 0 0.0 0.0 0.00 0.01 0.00 72 1014.9
20260904063803 69 0 0.0 0.0 0.00 0.01 0.00 72 1014.9
20260904063603 69 0 0.0 0.0 0.00 0.01 0.00 72 1014.9
20260904063403 69 0 0.0 0.0 0.00 0.01 0.00 72 1015.0
20260904063203 69 0 0.0 0.0 0.00 0.01 0.00 72 1015.0
20260904063003 69 0 0.0 0.0 0.00 0.01 0.00 72 1015.1
20260904062803 69 0 0.0 0.0 0.00 0.01 0.00 72 1015.1
20260904062603 69 0 0.0 0.0 0.00 0.01 0.00 72 1015.1
20260904062403 69 0 0.0 0.0 0.00 0.01 0.00 72 1015.1
20260904062203 69 0 0.0 0.0 0.00 0.01 0.00 72 1015.2
20260904062003 69 0 0.0 0.0 0.00 0.01 0.00 72 1015.2
20260904061803 69 203 0.0 1.0 0.00 0.01 0.00 72 1015.2
20260904061603 69 203 0.0 1.0 0.00 0.01 0.00 72 1015.1
20260904061403 69 203 0.0 1.0 0.00 0.01 0.00 72 1015.1
20260904061203 69 203 0.0 1.0 0.00 0.01 0.00 72 1015.3
20260904061003 69 203 0.0 1.0 0.00 0.01 0.00 72 1015.3
20260904060803 69 0 0.0 0.0 0.00 0.01 0.00 72 1015.3
20260904060603 69 0 0.0 0.0 0.00 0.01 0.00 72 1015.3
20260904060403 69 0 0.0 0.0 0.00 0.01 0.00 72 1015.4
20260904060224 69 0 0.0 0.0 0.00 0.01 0.00 72 1015.5
20260904060003 69 0 0.0 0.0 0.00 0.01 0.00 72 1015.5
20260904055824 69 0 0.0 0.0 0.00 0.01 0.00 72 1015.5
20260904055624 69 0 0.0 0.0 0.00 0.01 0.00 72 1015.5
20260904055403 69 0 0.0 0.0 0.00 0.01 0.00 72 1015.4
20260904055203 69 0 0.0 0.0 0.00 0.01 0.00 72 1015.4
20260904055003 69 0 0.0 0.0 0.00 0.01 0.00 72 1015.4
20260904054803 69 203 0.0 1.0 0.00 0.01 0.00 72 1015.4
20260904054603 69 203 0.0 1.0 0.00 0.01 0.00 72 1015.4
20260904054403 69 203 0.0 1.0 0.00 0.01 0.00 72 1015.3
20260904054203 69 203 0.0 1.0 0.00 0.01 0.00 72 1015.3
20260904054003 69 203 0.0 1.0 0.00 0.01 0.00 72 1015.3
20260904053803 69 203 0.0 1.0 0.00 0.01 0.00 72 1015.3
20260904053603 69 203 0.0 1.0 0.00 0.01 0.00 72 1015.2
20260904053403 69 203 0.0 1.0 0.00 0.01 0.00 72 1015.3
20260904053203 69 203 0.0 1.0 0.00 0.01 0.00 72 1015.3
20260904053003 69 0 0.0 0.0 0.00 0.01 0.00 72 1015.2